This is the latest recevied weather packets stored in our database for station/object N5JXS. If no packets are shown the sender has not sent any weather packets the latest 10 day(s).
| Time | Temp. | Humidity | Pressure | Rain* | Wind** | Luminosity | Snow |
|---|---|---|---|---|---|---|---|
| 1788553197 | 30° C | 22% | 1024.4 hPa | 0 mm | - | 543 W/m² | - |
| 1788552892 | 30.56° C | 21% | 1024.4 hPa | 0 mm | - | 469 W/m² | - |
| 1788552588 | 30.56° C | 22% | 1024.4 hPa | 0 mm | - | 648 W/m² | - |
| 1788552286 | 30.56° C | 22% | 1024.2 hPa | 0 mm | - | 659 W/m² | - |
| 1788551981 | 30.56° C | 23% | 1024.5 hPa | 0 mm | - | 675 W/m² | - |
| 1788551679 | 30° C | 22% | 1024.6 hPa | 0 mm | - | 682 W/m² | - |
| 1788551379 | 30.56° C | 22% | 1024.6 hPa | 0 mm | - | 743 W/m² | - |
| 1788551074 | 30.56° C | 22% | 1024.5 hPa | 0 mm | - | 649 W/m² | - |
| 1788550769 | 31.11° C | 21% | 1024.5 hPa | 0 mm | - | 711 W/m² | - |
| 1788550464 | 30.56° C | 22% | 1024.5 hPa | 0 mm | - | 694 W/m² | - |
| 1788550160 | 30.56° C | 22% | 1024.6 hPa | 0 mm | - | 723 W/m² | - |
| 1788549855 | 29.44° C | 24% | 1024.7 hPa | 0 mm | - | 720 W/m² | - |
| 1788549551 | 28.89° C | 23% | 1024.8 hPa | 0 mm | - | 687 W/m² | - |
| 1788549247 | 29.44° C | 24% | 1024.8 hPa | 0 mm | - | 644 W/m² | - |
| 1788548943 | 29.44° C | 23% | 1024.8 hPa | 0 mm | - | 654 W/m² | - |
| 1788548638 | 30.56° C | 23% | 1024.6 hPa | 0 mm | - | 669 W/m² | - |
| 1788548335 | 30° C | 23% | 1024.7 hPa | 0 mm | - | 660 W/m² | - |
| 1788548030 | 30° C | 23% | 1024.8 hPa | 0 mm | - | 628 W/m² | - |
| 1788547730 | 29.44° C | 23% | 1025 hPa | 0 mm | - | 619 W/m² | - |
| 1788547425 | 30° C | 23% | 1025.2 hPa | 0 mm | - | 607 W/m² | - |
| 1788547120 | 29.44° C | 23% | 1024.8 hPa | 0 mm | - | 602 W/m² | - |
| 1788546815 | 29.44° C | 24% | 1025.1 hPa | 0 mm | - | 596 W/m² | - |
| 1788546511 | 28.89° C | 25% | 1025.2 hPa | 0 mm | - | 621 W/m² | - |
| 1788546205 | 27.78° C | 26% | 1025.3 hPa | 0 mm | - | 630 W/m² | - |
| 1788545900 | 27.78° C | 26% | 1025.5 hPa | 0 mm | - | 645 W/m² | - |
* Rain latest hour (hover to see other rain measurements)
** Current wind speed in m/s (hover to see current wind gust speed)